Time,TemperatureF,DewpointF,PressureIn,WindDirection,WindDirectionDegrees,WindSpeedMPH,WindSpeedGustMPH,Humidity,HourlyPrecipIn,Conditions,Clouds,dailyrainin,SoftwareType,DateUTC
2013-06-20 00:00:00,58.6,52.8,29.60,SW,224,1.0,1.0,81,0.00,,,0.00,Wunderground v.1.15,2013-06-20 08:00:00,
2013-06-20 00:05:00,57.5,52.7,29.60,SW,224,1.0,2.0,84,0.00,,,0.00,Wunderground v.1.15,2013-06-20 08:05:00,
2013-06-20 00:15:00,55.6,51.8,29.60,SSW,198,4.0,6.0,87,0.00,,,0.00,Wunderground v.1.15,2013-06-20 08:15:00,
2013-06-20 00:25:00,54.5,51.3,29.60,SSW,193,4.0,5.0,89,0.00,,,0.00,Wunderground v.1.15,2013-06-20 08:25:00,
2013-06-20 00:30:00,54.2,51.0,29.60,SSW,193,2.0,2.0,89,0.00,,,0.00,Wunderground v.1.15,2013-06-20 08:30:00,
2013-06-20 00:40:00,53.8,51.2,29.60,SSW,193,1.0,1.0,91,0.00,,,0.00,Wunderground v.1.15,2013-06-20 08:40:00,
2013-06-20 00:50:00,53.5,50.9,29.61,SSW,193,1.0,1.0,91,0.00,,,0.00,Wunderground v.1.15,2013-06-20 08:50:00,
2013-06-20 01:00:00,53.2,50.9,29.61,SSW,193,0.0,0.0,92,0.00,,,0.00,Wunderground v.1.15,2013-06-20 09:00:00,
2013-06-20 01:10:00,52.9,50.6,29.61,SSW,193,0.0,0.0,92,0.00,,,0.00,Wunderground v.1.15,2013-06-20 09:10:00,
2013-06-20 01:15:00,52.8,50.8,29.61,SSW,193,0.0,0.0,93,0.00,,,0.00,Wunderground v.1.15,2013-06-20 09:15:00,
2013-06-20 01:25:00,52.2,50.2,29.61,SSW,193,0.0,0.0,93,0.00,,,0.00,Wunderground v.1.15,2013-06-20 09:25:00,
2013-06-20 01:30:00,51.6,49.9,29.61,SSW,193,0.0,0.0,94,0.00,,,0.00,Wunderground v.1.15,2013-06-20 09:30:00,
2013-06-20 01:40:00,51.3,50.8,29.61,SSW,193,0.0,0.0,98,0.00,,,0.00,Wunderground v.1.15,2013-06-20 09:40:00,
2013-06-20 01:45:00,51.6,51.6,29.62,SSW,193,1.0,1.0,100,0.00,,,0.00,Wunderground v.1.15,2013-06-20 09:45:00,
2013-06-20 01:55:00,51.4,51.4,29.62,SSW,193,0.0,0.0,100,0.00,,,0.00,Wunderground v.1.15,2013-06-20 09:55:00,
2013-06-20 02:05:00,50.7,50.2,29.63,SSW,193,0.0,0.0,98,0.00,,,0.00,Wunderground v.1.15,2013-06-20 10:05:00,
2013-06-20 02:15:00,50.1,49.0,29.63,SSW,193,1.0,1.0,96,0.00,,,0.00,Wunderground v.1.15,2013-06-20 10:15:00,
2013-06-20 02:20:00,49.8,49.0,29.63,SSW,193,0.0,0.0,97,0.00,,,0.00,Wunderground v.1.15,2013-06-20 10:20:00,
2013-06-20 02:30:00,49.2,48.7,29.64,SSW,193,0.0,0.0,98,0.00,,,0.00,Wunderground v.1.15,2013-06-20 10:30:00,
2013-06-20 02:35:00,49.2,49.2,29.64,SSW,193,0.0,0.0,100,0.00,,,0.00,Wunderground v.1.15,2013-06-20 10:35:00,
2013-06-20 02:45:00,48.6,48.6,29.64,SSW,193,0.0,0.0,100,0.00,,,0.00,Wunderground v.1.15,2013-06-20 10:45:00,
2013-06-20 02:55:00,48.8,48.8,29.64,SSW,193,1.0,1.0,100,0.00,,,0.00,Wunderground v.1.15,2013-06-20 10:55:00,
2013-06-20 03:00:00,48.8,48.8,29.65,SSW,193,1.0,1.0,100,0.00,,,0.00,Wunderground v.1.15,2013-06-20 11:00:00,
2013-06-20 03:10:00,49.1,49.1,29.65,SSW,193,1.0,1.0,100,0.00,,,0.00,Wunderground v.1.15,2013-06-20 11:10:00,
2013-06-20 03:20:00,49.1,49.1,29.66,SSW,193,1.0,1.0,100,0.00,,,0.00,Wunderground v.1.15,2013-06-20 11:20:00,
2013-06-20 03:30:00,48.3,48.3,29.65,SSW,193,0.0,0.0,100,0.00,,,0.00,Wunderground v.1.15,2013-06-20 11:30:00,
2013-06-20 03:40:00,48.3,48.3,29.65,SSW,193,0.0,2.0,100,0.00,,,0.00,Wunderground v.1.15,2013-06-20 11:40:00,
2013-06-20 03:45:00,48.5,48.5,29.66,SSW,193,0.0,2.0,100,0.00,,,0.00,Wunderground v.1.15,2013-06-20 11:45:00,
2013-06-20 03:55:00,47.6,47.6,29.66,SSW,193,0.0,0.0,100,0.00,,,0.00,Wunderground v.1.15,2013-06-20 11:55:00,
2013-06-20 04:05:00,45.8,45.8,29.66,SSW,193,1.0,2.0,100,0.00,,,0.00,Wunderground v.1.15,2013-06-20 12:05:00,
2013-06-20 04:15:00,45.7,45.7,29.66,SSW,193,1.0,1.0,100,0.00,,,0.00,Wunderground v.1.15,2013-06-20 12:15:00,
2013-06-20 04:20:00,45.7,45.7,29.66,SSW,193,0.0,0.0,100,0.00,,,0.00,Wunderground v.1.15,2013-06-20 12:20:00,
2013-06-20 04:25:00,45.8,45.8,29.66,SSW,193,1.0,2.0,100,0.00,,,0.00,Wunderground v.1.15,2013-06-20 12:25:00,
2013-06-20 04:35:00,46.0,46.0,29.66,SSW,193,2.0,2.0,100,0.00,,,0.00,Wunderground v.1.15,2013-06-20 12:35:00,
2013-06-20 04:45:00,44.6,44.6,29.66,SSW,193,1.0,1.0,100,0.00,,,0.00,Wunderground v.1.15,2013-06-20 12:45:00,
2013-06-20 04:50:00,44.6,44.6,29.66,SSW,193,2.0,2.0,100,0.00,,,0.00,Wunderground v.1.15,2013-06-20 12:50:00,
2013-06-20 05:00:00,44.5,44.5,29.65,SSW,193,0.0,0.0,100,0.00,,,0.00,Wunderground v.1.15,2013-06-20 13:00:00,
2013-06-20 05:10:00,44.6,44.6,29.65,SSW,193,1.0,2.0,100,0.00,,,0.00,Wunderground v.1.15,2013-06-20 13:10:00,
2013-06-20 05:20:00,45.1,45.1,29.65,SSW,193,0.0,0.0,100,0.00,,,0.00,Wunderground v.1.15,2013-06-20 13:20:00,
2013-06-20 05:25:00,44.9,44.9,29.65,SSW,193,0.0,1.0,100,0.00,,,0.00,Wunderground v.1.15,2013-06-20 13:25:00,
2013-06-20 05:35:00,44.9,44.9,29.65,SSW,193,0.0,1.0,100,0.00,,,0.00,Wunderground v.1.15,2013-06-20 13:35:00,
2013-06-20 05:45:00,45.7,45.7,29.66,SSW,193,2.0,2.0,100,0.00,,,0.00,Wunderground v.1.15,2013-06-20 13:45:00,
2013-06-20 05:50:00,46.0,46.0,29.66,SSW,193,1.0,1.0,100,0.00,,,0.00,Wunderground v.1.15,2013-06-20 13:50:00,
2013-06-20 05:55:00,46.0,46.0,29.66,SSW,193,0.0,1.0,100,0.00,,,0.00,Wunderground v.1.15,2013-06-20 13:55:00,
2013-06-20 06:05:00,46.8,46.8,29.66,SSW,193,0.0,0.0,100,0.00,,,0.00,Wunderground v.1.15,2013-06-20 14:05:00,
2013-06-20 06:10:00,46.8,46.8,29.66,SSW,193,0.0,0.0,100,0.00,,,0.00,Wunderground v.1.15,2013-06-20 14:10:00,
2013-06-20 06:15:00,46.4,46.4,29.66,SSW,193,0.0,0.0,100,0.00,,,0.00,Wunderground v.1.15,2013-06-20 14:15:00,
2013-06-20 06:25:00,46.5,46.5,29.66,SSW,193,0.0,2.0,100,0.00,,,0.00,Wunderground v.1.15,2013-06-20 14:25:00,
2013-06-20 06:30:00,46.5,46.5,29.66,SSW,193,1.0,1.0,100,0.00,,,0.00,Wunderground v.1.15,2013-06-20 14:30:00,
2013-06-20 06:40:00,47.3,47.3,29.66,SSW,193,1.0,1.0,100,0.00,,,0.00,Wunderground v.1.15,2013-06-20 14:40:00,
2013-06-20 06:50:00,47.4,47.4,29.66,SSW,193,1.0,1.0,100,0.00,,,0.00,Wunderground v.1.15,2013-06-20 14:50:00,
2013-06-20 07:00:00,48.2,48.2,29.66,SSW,193,0.0,0.0,100,0.00,,,0.00,Wunderground v.1.15,2013-06-20 15:00:00,
2013-06-20 07:05:00,48.5,48.5,29.66,SSW,193,0.0,0.0,100,0.00,,,0.00,Wunderground v.1.15,2013-06-20 15:05:00,
2013-06-20 07:15:00,48.9,48.9,29.68,SSW,193,1.0,1.0,100,0.00,,,0.00,Wunderground v.1.15,2013-06-20 15:15:00,
2013-06-20 07:25:00,48.5,48.5,29.68,SSW,193,0.0,2.0,100,0.00,,,0.00,Wunderground v.1.15,2013-06-20 15:25:00,
2013-06-20 07:35:00,49.1,49.1,29.68,SSW,193,0.0,0.0,100,0.00,,,0.00,Wunderground v.1.15,2013-06-20 15:35:00,
2013-06-20 07:40:00,49.6,49.6,29.68,SSW,193,0.0,0.0,100,0.00,,,0.00,Wunderground v.1.15,2013-06-20 15:40:00,
2013-06-20 07:50:00,50.5,50.5,29.68,SSW,193,0.0,1.0,100,0.00,,,0.00,Wunderground v.1.15,2013-06-20 15:50:00,
2013-06-20 08:00:00,51.6,51.6,29.69,SSW,193,0.0,3.0,100,0.00,,,0.00,Wunderground v.1.15,2013-06-20 16:00:00,
2013-06-20 08:10:00,53.6,53.6,29.69,South,188,2.0,9.0,100,0.00,,,0.00,Wunderground v.1.15,2013-06-20 16:10:00,
2013-06-20 08:15:00,53.3,53.3,29.70,SSW,198,7.0,9.0,100,0.00,,,0.00,Wunderground v.1.15,2013-06-20 16:15:00,
2013-06-20 08:25:00,53.2,53.2,29.70,South,190,7.0,9.0,100,0.00,,,0.00,Wunderground v.1.15,2013-06-20 16:25:00,
2013-06-20 08:35:00,54.8,54.8,29.70,South,186,2.0,3.0,100,0.00,,,0.00,Wunderground v.1.15,2013-06-20 16:35:00,
2013-06-20 08:45:00,54.8,54.8,29.70,South,187,1.0,2.0,100,0.00,,,0.00,Wunderground v.1.15,2013-06-20 16:45:00,
2013-06-20 08:55:00,55.3,55.3,29.70,South,187,0.0,1.0,100,0.00,,,0.00,Wunderground v.1.15,2013-06-20 16:55:00,
2013-06-20 09:05:00,55.4,54.0,29.71,South,187,0.0,0.0,95,0.00,,,0.00,Wunderground v.1.15,2013-06-20 17:05:00,
2013-06-20 09:15:00,55.4,54.0,29.70,South,187,0.0,1.0,95,0.00,,,0.00,Wunderground v.1.15,2013-06-20 17:15:00,
2013-06-20 09:20:00,55.4,53.7,29.70,South,187,0.0,0.0,94,0.00,,,0.00,Wunderground v.1.15,2013-06-20 17:20:00,
2013-06-20 09:30:00,55.4,54.0,29.71,South,187,0.0,0.0,95,0.00,,,0.00,Wunderground v.1.15,2013-06-20 17:30:00,
2013-06-20 09:40:00,55.3,53.0,29.71,SSW,201,3.0,3.0,92,0.00,,,0.00,Wunderground v.1.15,2013-06-20 17:40:00,
2013-06-20 09:50:00,54.7,53.0,29.71,SSW,193,6.0,7.0,94,0.00,,,0.00,Wunderground v.1.15,2013-06-20 17:50:00,
2013-06-20 10:00:00,53.9,53.3,29.72,SSW,193,6.0,6.0,98,0.00,,,0.00,Wunderground v.1.15,2013-06-20 18:00:00,
2013-06-20 10:10:00,53.9,53.9,29.72,SSW,193,6.0,6.0,100,0.00,,,0.00,Wunderground v.1.15,2013-06-20 18:10:00,
2013-06-20 10:15:00,53.8,53.8,29.72,South,190,6.0,6.0,100,0.00,,,0.00,Wunderground v.1.15,2013-06-20 18:15:00,
2013-06-20 10:25:00,53.9,53.9,29.72,South,187,6.0,8.0,100,0.00,,,0.00,Wunderground v.1.15,2013-06-20 18:25:00,
2013-06-20 10:35:00,54.2,54.2,29.72,South,184,4.0,5.0,100,0.00,,,0.00,Wunderground v.1.15,2013-06-20 18:35:00,
2013-06-20 10:45:00,54.5,54.5,29.72,South,174,4.0,4.0,100,0.00,,,0.00,Wunderground v.1.15,2013-06-20 18:45:00,
2013-06-20 10:50:00,54.5,54.5,29.72,SSE,167,4.0,5.0,100,0.00,,,0.00,Wunderground v.1.15,2013-06-20 18:50:00,
2013-06-20 11:00:00,54.7,54.1,29.73,SSW,193,5.0,7.0,98,0.00,,,0.00,Wunderground v.1.15,2013-06-20 19:00:00,
2013-06-20 11:10:00,55.1,54.3,29.73,South,183,5.0,6.0,97,0.00,,,0.00,Wunderground v.1.15,2013-06-20 19:10:00,
2013-06-20 11:20:00,55.6,54.2,29.72,South,174,6.0,6.0,95,0.00,,,0.00,Wunderground v.1.15,2013-06-20 19:20:00,
2013-06-20 11:30:00,56.2,54.2,29.73,South,188,5.0,5.0,93,0.00,,,0.00,Wunderground v.1.15,2013-06-20 19:30:00,
2013-06-20 11:40:00,56.2,54.2,29.73,SSW,198,6.0,6.0,93,0.00,,,0.00,Wunderground v.1.15,2013-06-20 19:40:00,
2013-06-20 11:45:00,56.7,54.1,29.73,SSW,201,6.0,8.0,91,0.00,,,0.00,Wunderground v.1.15,2013-06-20 19:45:00,
2013-06-20 11:55:00,56.9,52.8,29.73,South,184,7.0,8.0,86,0.00,,,0.00,Wunderground v.1.15,2013-06-20 19:55:00,
2013-06-20 12:05:00,57.0,52.9,29.73,South,172,8.0,9.0,86,0.00,,,0.00,Wunderground v.1.15,2013-06-20 20:05:00,
2013-06-20 12:15:00,57.6,52.8,29.73,South,180,7.0,8.0,84,0.00,,,0.00,Wunderground v.1.15,2013-06-20 20:15:00,
2013-06-20 12:20:00,57.6,53.1,29.73,SSE,162,7.0,7.0,85,0.00,,,0.00,Wunderground v.1.15,2013-06-20 20:20:00,
2013-06-20 12:30:00,57.5,52.7,29.73,SSE,157,8.0,8.0,84,0.00,,,0.00,Wunderground v.1.15,2013-06-20 20:30:00,
2013-06-20 12:40:00,58.7,52.9,29.73,South,172,9.0,9.0,81,0.00,,,0.00,Wunderground v.1.15,2013-06-20 20:40:00,
2013-06-20 12:50:00,60.2,53.0,29.73,South,169,9.0,12.0,77,0.00,,,0.00,Wunderground v.1.15,2013-06-20 20:50:00,
2013-06-20 13:00:00,58.9,52.7,29.73,South,188,9.0,9.0,80,0.00,,,0.00,Wunderground v.1.15,2013-06-20 21:00:00,
2013-06-20 13:10:00,58.0,52.2,29.73,South,187,9.0,9.0,81,0.00,,,0.00,Wunderground v.1.15,2013-06-20 21:10:00,
2013-06-20 13:20:00,57.5,52.0,29.74,South,187,10.0,14.0,82,0.00,,,0.00,Wunderground v.1.15,2013-06-20 21:20:00,
2013-06-20 13:25:00,57.3,51.9,29.74,South,179,11.0,14.0,82,0.00,,,0.00,Wunderground v.1.15,2013-06-20 21:25:00,
2013-06-20 13:35:00,58.1,52.3,29.74,South,191,12.0,12.0,81,0.00,,,0.00,Wunderground v.1.15,2013-06-20 21:35:00,
2013-06-20 13:45:00,58.9,52.7,29.74,SW,229,10.0,11.0,80,0.00,,,0.00,Wunderground v.1.15,2013-06-20 21:45:00,
2013-06-20 13:50:00,59.3,52.4,29.74,SSW,204,8.0,8.0,78,0.00,,,0.00,Wunderground v.1.15,2013-06-20 21:50:00,
2013-06-20 14:00:00,59.8,52.9,29.74,SSW,198,8.0,13.0,78,0.00,,,0.00,Wunderground v.1.15,2013-06-20 22:00:00,
2013-06-20 14:10:00,60.5,52.9,29.74,SW,220,7.0,7.0,76,0.00,,,0.00,Wunderground v.1.15,2013-06-20 22:10:00,
2013-06-20 14:15:00,60.7,52.4,29.74,WSW,255,7.0,7.0,74,0.00,,,0.00,Wunderground v.1.15,2013-06-20 22:15:00,
2013-06-20 14:20:00,60.9,52.9,29.74,West,265,7.0,10.0,75,0.00,,,0.00,Wunderground v.1.15,2013-06-20 22:20:00,
2013-06-20 14:30:00,61.6,52.5,29.74,SW,221,7.0,10.0,72,0.00,,,0.00,Wunderground v.1.15,2013-06-20 22:30:00,
2013-06-20 14:35:00,61.5,51.2,29.74,SW,224,6.0,10.0,69,0.00,,,0.00,Wunderground v.1.15,2013-06-20 22:35:00,
2013-06-20 14:40:00,62.3,53.2,29.74,West,273,6.0,6.0,72,0.00,,,0.00,Wunderground v.1.15,2013-06-20 22:40:00,
2013-06-20 14:50:00,62.0,50.9,29.75,SW,220,6.0,6.0,67,0.00,,,0.00,Wunderground v.1.15,2013-06-20 22:50:00,
2013-06-20 14:55:00,62.1,51.0,29.75,SW,229,6.0,6.0,67,0.00,,,0.00,Wunderground v.1.15,2013-06-20 22:55:00,
2013-06-20 15:05:00,62.4,51.7,29.75,West,269,5.0,5.0,68,0.00,,,0.00,Wunderground v.1.15,2013-06-20 23:05:00,
2013-06-20 15:15:00,62.1,50.6,29.75,West,270,5.0,10.0,66,0.00,,,0.00,Wunderground v.1.15,2013-06-20 23:15:00,
2013-06-20 15:25:00,62.9,51.0,29.75,SW,222,4.0,5.0,65,0.00,,,0.00,Wunderground v.1.15,2013-06-20 23:25:00,
2013-06-20 15:35:00,62.7,51.6,29.75,WSW,252,5.0,5.0,67,0.00,,,0.00,Wunderground v.1.15,2013-06-20 23:35:00,
2013-06-20 15:40:00,63.2,51.2,29.75,SW,229,4.0,6.0,65,0.00,,,0.00,Wunderground v.1.15,2013-06-20 23:40:00,
2013-06-20 15:50:00,62.9,51.0,29.75,West,260,5.0,7.0,65,0.00,,,0.00,Wunderground v.1.15,2013-06-20 23:50:00,
2013-06-20 15:55:00,62.4,50.5,29.75,SW,217,5.0,7.0,65,0.00,,,0.00,Wunderground v.1.15,2013-06-20 23:55:00,
2013-06-20 16:05:00,63.2,51.2,29.75,West,269,5.0,5.0,65,0.00,,,0.00,Wunderground v.1.15,2013-06-21 00:05:00,
2013-06-20 16:15:00,63.4,51.8,29.75,SW,221,5.0,7.0,66,0.00,,,0.00,Wunderground v.1.15,2013-06-21 00:15:00,
2013-06-20 16:20:00,63.4,51.4,29.75,WSW,252,4.0,9.0,65,0.00,,,0.00,Wunderground v.1.15,2013-06-21 00:20:00,
2013-06-20 16:30:00,63.5,51.5,29.75,WSW,246,5.0,8.0,65,0.00,,,0.00,Wunderground v.1.15,2013-06-21 00:30:00,
2013-06-20 16:35:00,63.5,51.1,29.75,SW,220,6.0,8.0,64,0.00,,,0.00,Wunderground v.1.15,2013-06-21 00:35:00,
2013-06-20 16:45:00,61.3,51.8,29.74,South,177,9.0,10.0,71,0.00,,,0.00,Wunderground v.1.15,2013-06-21 00:45:00,
2013-06-20 16:55:00,59.8,51.1,29.74,South,174,10.0,11.0,73,0.00,,,0.00,Wunderground v.1.15,2013-06-21 00:55:00,
2013-06-20 17:00:00,59.9,49.7,29.75,South,174,7.0,8.0,69,0.00,,,0.00,Wunderground v.1.15,2013-06-21 01:00:00,
2013-06-20 17:10:00,60.9,49.9,29.75,South,173,8.0,10.0,67,0.00,,,0.00,Wunderground v.1.15,2013-06-21 01:10:00,
2013-06-20 17:20:00,61.2,49.7,29.74,South,187,8.0,8.0,66,0.00,,,0.00,Wunderground v.1.15,2013-06-21 01:20:00,
2013-06-20 17:30:00,60.7,48.9,29.74,SSW,211,7.0,7.0,65,0.00,,,0.00,Wunderground v.1.15,2013-06-21 01:30:00,
2013-06-20 17:35:00,60.2,48.8,29.74,SSW,197,8.0,10.0,66,0.00,,,0.00,Wunderground v.1.15,2013-06-21 01:35:00,
2013-06-20 17:45:00,59.6,48.6,29.74,SSW,211,8.0,11.0,67,0.00,,,0.00,Wunderground v.1.15,2013-06-21 01:45:00,
2013-06-20 17:50:00,59.5,49.3,29.74,SSW,193,8.0,8.0,69,0.00,,,0.00,Wunderground v.1.15,2013-06-21 01:50:00,
2013-06-20 17:55:00,60.7,50.1,29.74,SSW,210,8.0,8.0,68,0.00,,,0.00,Wunderground v.1.15,2013-06-21 01:55:00,
2013-06-20 18:05:00,62.0,49.7,29.74,South,179,9.0,9.0,64,0.00,,,0.00,Wunderground v.1.15,2013-06-21 02:05:00,
2013-06-20 18:10:00,63.1,50.7,29.74,SSE,167,8.0,8.0,64,0.00,,,0.00,Wunderground v.1.15,2013-06-21 02:10:00,
2013-06-20 18:20:00,63.7,49.1,29.74,SSE,166,9.0,9.0,59,0.00,,,0.00,Wunderground v.1.15,2013-06-21 02:20:00,
2013-06-20 18:30:00,62.0,49.3,29.74,South,180,11.0,11.0,63,0.00,,,0.00,Wunderground v.1.15,2013-06-21 02:30:00,
2013-06-20 18:35:00,61.6,49.3,29.74,SSE,160,9.0,11.0,64,0.00,,,0.00,Wunderground v.1.15,2013-06-21 02:35:00,
2013-06-20 18:45:00,62.3,50.0,29.73,South,188,10.0,15.0,64,0.00,,,0.00,Wunderground v.1.15,2013-06-21 02:45:00,
2013-06-20 18:55:00,61.6,50.9,29.73,SSW,197,14.0,17.0,68,0.00,,,0.00,Wunderground v.1.15,2013-06-21 02:55:00,
2013-06-20 19:05:00,62.3,50.4,29.74,SSE,152,10.0,12.0,65,0.00,,,0.00,Wunderground v.1.15,2013-06-21 03:05:00,
2013-06-20 19:10:00,61.8,49.9,29.74,South,191,12.0,16.0,65,0.00,,,0.00,Wunderground v.1.15,2013-06-21 03:10:00,
2013-06-20 19:20:00,61.5,50.8,29.74,South,187,13.0,13.0,68,0.00,,,0.00,Wunderground v.1.15,2013-06-21 03:20:00,
2013-06-20 19:30:00,61.5,50.4,29.74,South,186,11.0,11.0,67,0.00,,,0.00,Wunderground v.1.15,2013-06-21 03:30:00,
2013-06-20 19:40:00,61.5,51.2,29.74,South,190,11.0,12.0,69,0.00,,,0.00,Wunderground v.1.15,2013-06-21 03:40:00,
2013-06-20 19:45:00,61.6,50.5,29.74,South,181,11.0,12.0,67,0.00,,,0.00,Wunderground v.1.15,2013-06-21 03:45:00,
2013-06-20 19:55:00,61.6,50.5,29.74,SSW,197,11.0,13.0,67,0.00,,,0.00,Wunderground v.1.15,2013-06-21 03:55:00,
2013-06-20 20:05:00,61.6,50.1,29.74,South,188,8.0,12.0,66,0.00,,,0.00,Wunderground v.1.15,2013-06-21 04:05:00,
2013-06-20 20:10:00,61.6,50.1,29.74,South,188,8.0,8.0,66,0.00,,,0.00,Wunderground v.1.15,2013-06-21 04:10:00,
2013-06-20 20:15:00,-999.9,-99.9,29.73,North,32767,-999.0,8.0,255,-99.99,,,0.00,Wunderground v.1.15,2013-06-21 04:15:00,
2013-06-20 20:25:00,-999.9,-99.9,29.73,North,32767,-999.0,0.0,255,-99.99,,,0.00,Wunderground v.1.15,2013-06-21 04:25:00,
2013-06-20 20:30:00,60.4,48.6,29.73,SSW,208,14.0,14.0,65,0.00,,,0.00,Wunderground v.1.15,2013-06-21 04:30:00,
2013-06-20 20:45:00,59.2,49.0,29.74,SSW,198,13.0,17.0,69,0.00,,,0.00,Wunderground v.1.15,2013-06-21 04:45:00,
2013-06-20 20:50:00,58.9,48.7,29.74,SSW,203,12.0,14.0,69,0.00,,,0.00,Wunderground v.1.15,2013-06-21 04:50:00,
2013-06-20 21:00:00,58.7,49.3,29.74,South,187,12.0,12.0,71,0.00,,,0.00,Wunderground v.1.15,2013-06-21 05:00:00,
2013-06-20 21:05:00,58.9,49.9,29.74,South,184,12.0,12.0,72,0.00,,,0.00,Wunderground v.1.15,2013-06-21 05:05:00,
2013-06-20 21:15:00,58.7,50.1,29.75,South,190,9.0,13.0,73,0.00,,,0.00,Wunderground v.1.15,2013-06-21 05:15:00,
2013-06-20 21:20:00,58.4,49.8,29.75,SSW,197,9.0,9.0,73,0.00,,,0.00,Wunderground v.1.15,2013-06-21 05:20:00,
2013-06-20 21:25:00,57.6,50.1,29.75,SSW,212,8.0,9.0,76,0.00,,,0.00,Wunderground v.1.15,2013-06-21 05:25:00,
2013-06-20 21:30:00,57.5,50.3,29.75,South,190,8.0,10.0,77,0.00,,,0.00,Wunderground v.1.15,2013-06-21 05:30:00,
2013-06-20 21:40:00,57.2,50.7,29.75,SSW,208,7.0,7.0,79,0.00,,,0.00,Wunderground v.1.15,2013-06-21 05:40:00,
2013-06-20 21:50:00,56.9,50.1,29.75,SSW,198,6.0,10.0,78,0.00,,,0.00,Wunderground v.1.15,2013-06-21 05:50:00,
2013-06-20 21:55:00,56.7,50.3,29.75,SSW,197,8.0,10.0,79,0.00,,,0.00,Wunderground v.1.15,2013-06-21 05:55:00,
2013-06-20 22:05:00,56.9,50.8,29.75,SSW,197,8.0,9.0,80,0.00,,,0.00,Wunderground v.1.15,2013-06-21 06:05:00,
2013-06-20 22:15:00,56.2,51.4,29.76,SSW,208,7.0,8.0,84,0.00,,,0.00,Wunderground v.1.15,2013-06-21 06:15:00,
2013-06-20 22:25:00,54.8,51.0,29.76,SSW,205,5.0,5.0,87,0.00,,,0.00,Wunderground v.1.15,2013-06-21 06:25:00,
2013-06-20 22:35:00,54.1,50.3,29.76,SSW,212,5.0,6.0,87,0.00,,,0.00,Wunderground v.1.15,2013-06-21 06:35:00,
2013-06-20 22:40:00,54.2,50.1,29.76,SSW,201,4.0,4.0,86,0.00,,,0.00,Wunderground v.1.15,2013-06-21 06:40:00,
2013-06-20 22:50:00,55.1,50.7,29.76,South,187,3.0,3.0,85,0.00,,,0.00,Wunderground v.1.15,2013-06-21 06:50:00,
2013-06-20 22:55:00,55.6,50.8,29.76,SSW,212,2.0,3.0,84,0.00,,,0.00,Wunderground v.1.15,2013-06-21 06:55:00,
2013-06-20 23:00:00,55.4,51.0,29.75,SSW,207,3.0,5.0,85,0.00,,,0.00,Wunderground v.1.15,2013-06-21 07:00:00,
2013-06-20 23:10:00,54.2,50.7,29.75,SSW,196,4.0,5.0,88,0.00,,,0.00,Wunderground v.1.15,2013-06-21 07:10:00,
2013-06-20 23:20:00,53.6,50.4,29.76,South,187,4.0,5.0,89,0.00,,,0.00,Wunderground v.1.15,2013-06-21 07:20:00,
2013-06-20 23:25:00,53.5,50.6,29.76,South,183,4.0,5.0,90,0.00,,,0.00,Wunderground v.1.15,2013-06-21 07:25:00,
2013-06-20 23:35:00,53.3,50.4,29.76,South,181,3.0,6.0,90,0.00,,,0.00,Wunderground v.1.15,2013-06-21 07:35:00,
2013-06-20 23:45:00,53.3,50.4,29.76,SW,222,1.0,2.0,90,0.00,,,0.00,Wunderground v.1.15,2013-06-21 07:45:00,
2013-06-20 23:55:00,52.5,50.2,29.76,WSW,238,1.0,2.0,92,0.00,,,0.00,Wunderground v.1.15,2013-06-21 07:55:00,